Overview Statistics Trail Chart Weather Telemetry Raw packets
 

This is the latest recevied weather packets stored in our database for station/object OK1FET-14. If no packets are shown the sender has not sent any weather packets the latest 10 day(s).

<< 345 346 347 348 349 350 351 >>
Time Temp. Humidity Pressure Rain* Wind** Luminosity Snow
1787904325 22.22° C 65% 1015.6 hPa - - - -
1787904044 21.67° C 69% 1015.8 hPa - - - -
1787904043 21.67° C 69% 1015.8 hPa - - - -
1787904043 21.67° C 69% 1015.8 hPa - - - -
1787903762 21.11° C 69% 1016.3 hPa - - - -
1787903762 21.11° C 69% 1016.3 hPa - - - -
1787903481 20.56° C 69% 1016.5 hPa - - - -
1787903481 20.56° C 69% 1016.5 hPa - - - -
1787903481 20.56° C 69% 1016.5 hPa - - - -
1787903201 19.44° C 69% 1016.8 hPa - - - -
1787903200 19.44° C 69% 1016.8 hPa - - - -
1787903200 19.44° C 69% 1016.8 hPa - - - -
1787902919 20.56° C 67% 1016.8 hPa - - - -
1787902919 20.56° C 67% 1016.8 hPa - - - -
1787902639 20° C 68% 1016.7 hPa - - - -
1787902638 20° C 68% 1016.7 hPa - - - -
1787902638 20° C 68% 1016.7 hPa - - - -
1787902357 20° C 68% 1016.6 hPa - - - -
1787902357 20° C 68% 1016.6 hPa - - - -
1787902077 18.89° C 72% 1016.3 hPa - - - -
1787902077 18.89° C 72% 1016.3 hPa - - - -
1787901796 18.89° C 73% 1015.7 hPa - - - -
1787901796 18.89° C 73% 1015.7 hPa - - - -
1787901796 18.89° C 73% 1015.7 hPa - - - -
1787901796 18.89° C 73% 1015.7 hPa - - - -

* Rain since midnight (hover to see other rain measurements)
** Current wind speed in m/s (hover to see current wind gust speed)